TimeCDT,TemperatureF,Dew PointF,Humidity,Sea Level PressureIn,VisibilityMPH,Wind Direction,Wind SpeedMPH,Gust SpeedMPH,PrecipitationIn,Events,Conditions,WindDirDegrees,DateUTC
12:13 AM,52.2,28.4,40,29.83,10.0,SSW,19.6,25.3,N/A,,Clear,210,2012-10-11 05:13:00
12:34 AM,52.2,28.6,40,29.83,10.0,SSW,19.6,25.3,N/A,,Clear,210,2012-10-11 05:34:00
12:54 AM,53.4,28.4,38,29.82,10.0,SW,20.7,29.9,N/A,,Clear,220,2012-10-11 05:54:00
1:14 AM,53.8,28.6,38,29.82,10.0,SW,21.9,29.9,N/A,,Clear,230,2012-10-11 06:14:00
1:34 AM,53.6,28.9,39,29.82,10.0,SW,23.0,28.8,N/A,,Clear,230,2012-10-11 06:34:00
1:54 AM,53.4,29.1,39,29.83,10.0,SW,19.6,29.9,N/A,,Clear,230,2012-10-11 06:54:00
2:14 AM,53.2,29.3,40,29.83,10.0,SW,20.7,29.9,N/A,,Clear,230,2012-10-11 07:14:00
2:54 AM,53.6,30.2,41,29.87,10.0,West,12.7,18.4,N/A,,Clear,260,2012-10-11 07:54:00
3:14 AM,52.9,30.2,42,29.88,10.0,West,9.2,-,N/A,,Clear,270,2012-10-11 08:14:00
3:34 AM,51.8,30.6,44,29.89,10.0,West,9.2,-,N/A,,Clear,260,2012-10-11 08:34:00
3:54 AM,50.5,30.7,47,29.90,10.0,WNW,8.1,-,N/A,,Clear,290,2012-10-11 08:54:00
4:14 AM,49.6,31.6,50,29.91,10.0,NW,15.0,18.4,N/A,,Clear,320,2012-10-11 09:14:00
4:34 AM,46.0,28.4,50,29.94,10.0,NNW,11.5,-,N/A,,Clear,330,2012-10-11 09:34:00
4:54 AM,43.9,29.8,58,29.94,10.0,NNW,12.7,-,N/A,,Clear,330,2012-10-11 09:54:00
5:14 AM,42.8,31.5,64,29.96,10.0,NW,16.1,20.7,N/A,,Clear,320,2012-10-11 10:14:00
5:34 AM,41.7,32.0,68,29.98,10.0,NNW,15.0,21.9,N/A,,Clear,330,2012-10-11 10:34:00
5:54 AM,41.0,32.0,70,29.99,10.0,NNW,17.3,24.2,N/A,,Clear,340,2012-10-11 10:54:00
6:14 AM,40.6,32.0,71,30.01,10.0,NNW,16.1,21.9,N/A,,Clear,340,2012-10-11 11:14:00
6:34 AM,40.1,32.0,73,30.02,10.0,North,17.3,24.2,N/A,,Clear,350,2012-10-11 11:34:00
6:54 AM,39.9,32.0,73,30.04,10.0,North,13.8,-,N/A,,Clear,350,2012-10-11 11:54:00
7:14 AM,39.6,32.0,74,30.05,10.0,North,12.7,-,N/A,,Clear,350,2012-10-11 12:14:00
7:34 AM,39.2,32.0,75,30.06,10.0,North,13.8,-,N/A,,Scattered Clouds,350,2012-10-11 12:34:00
7:54 AM,38.8,32.0,76,30.08,10.0,North,15.0,-,N/A,,Mostly Cloudy,350,2012-10-11 12:54:00
8:14 AM,38.8,32.0,76,30.09,10.0,North,13.8,18.4,N/A,,Mostly Cloudy,360,2012-10-11 13:14:00
8:34 AM,39.2,32.0,75,30.11,10.0,North,16.1,-,N/A,,Mostly Cloudy,350,2012-10-11 13:34:00
8:54 AM,39.4,32.0,75,30.12,10.0,North,12.7,-,N/A,,Scattered Clouds,360,2012-10-11 13:54:00
9:14 AM,39.4,32.0,75,30.14,10.0,North,11.5,-,N/A,,Scattered Clouds,360,2012-10-11 14:14:00
9:34 AM,39.9,32.0,73,30.15,10.0,North,12.7,17.3,N/A,,Scattered Clouds,10,2012-10-11 14:34:00
9:54 AM,40.1,31.6,72,30.15,10.0,North,12.7,-,N/A,,Scattered Clouds,360,2012-10-11 14:54:00
10:14 AM,41.0,31.6,69,30.17,10.0,North,15.0,20.7,N/A,,Scattered Clouds,360,2012-10-11 15:14:00
10:34 AM,41.5,31.3,67,30.18,10.0,North,13.8,-,N/A,,Mostly Cloudy,10,2012-10-11 15:34:00
10:54 AM,41.9,31.1,66,30.19,10.0,North,13.8,-,N/A,,Mostly Cloudy,10,2012-10-11 15:54:00
11:14 AM,42.3,31.1,65,30.20,10.0,North,12.7,-,N/A,,Scattered Clouds,10,2012-10-11 16:14:00
11:34 AM,42.8,31.6,65,30.21,10.0,North,12.7,19.6,N/A,,Scattered Clouds,360,2012-10-11 16:34:00
11:54 AM,42.8,31.3,64,30.21,10.0,North,12.7,-,N/A,,Mostly Cloudy,360,2012-10-11 16:54:00
12:14 PM,43.5,30.6,60,30.21,10.0,NNE,17.3,-,N/A,,Overcast,30,2012-10-11 17:14:00
12:54 PM,43.7,29.3,57,30.23,10.0,NNW,16.1,-,N/A,,Mostly Cloudy,340,2012-10-11 17:54:00
1:14 PM,44.4,28.2,53,30.22,10.0,North,16.1,-,N/A,,Mostly Cloudy,350,2012-10-11 18:14:00
1:34 PM,44.1,26.2,50,30.23,10.0,North,13.8,25.3,N/A,,Overcast,350,2012-10-11 18:34:00
1:54 PM,43.9,26.2,50,30.23,10.0,North,16.1,-,N/A,,Overcast,360,2012-10-11 18:54:00
2:14 PM,44.1,25.3,48,30.23,10.0,North,16.1,19.6,N/A,,Overcast,360,2012-10-11 19:14:00
2:34 PM,43.2,23.0,45,30.24,10.0,North,15.0,19.6,N/A,,Overcast,350,2012-10-11 19:34:00
2:53 PM,43.7,23.5,45,30.25,10.0,North,13.8,19.6,N/A,,Overcast,360,2012-10-11 19:53:00
3:14 PM,43.5,22.6,44,30.26,10.0,North,15.0,-,N/A,,Overcast,350,2012-10-11 20:14:00
3:54 PM,44.8,22.5,41,30.27,10.0,NNW,12.7,-,N/A,,Mostly Cloudy,340,2012-10-11 20:54:00
4:14 PM,44.4,21.0,39,30.27,10.0,NNW,13.8,19.6,N/A,,Mostly Cloudy,340,2012-10-11 21:14:00
4:34 PM,43.9,19.8,38,30.27,10.0,North,15.0,21.9,N/A,,Mostly Cloudy,350,2012-10-11 21:34:00
5:14 PM,43.5,18.5,37,30.27,10.0,NNW,11.5,17.3,N/A,,Scattered Clouds,340,2012-10-11 22:14:00
5:53 PM,42.8,16.3,34,30.28,10.0,North,12.7,-,N/A,,Clear,350,2012-10-11 22:53:00
6:33 PM,41.2,20.8,44,30.29,10.0,North,9.2,-,N/A,,Clear,350,2012-10-11 23:33:00
6:54 PM,40.1,21.2,47,30.30,10.0,NNW,6.9,-,N/A,,Clear,340,2012-10-11 23:54:00
7:14 PM,39.0,21.2,49,30.30,10.0,NNW,5.8,-,N/A,,Clear,330,2012-10-12 00:14:00
7:34 PM,37.4,20.7,51,30.31,10.0,NW,5.8,-,N/A,,Clear,320,2012-10-12 00:34:00
7:54 PM,36.5,20.7,53,30.33,10.0,NW,6.9,-,N/A,,Clear,310,2012-10-12 00:54:00
8:13 PM,35.6,19.9,53,30.34,10.0,NW,5.8,-,N/A,,Clear,320,2012-10-12 01:13:00
8:34 PM,34.7,18.5,52,30.35,10.0,NNW,5.8,-,N/A,,Clear,330,2012-10-12 01:34:00
8:54 PM,33.6,17.6,52,30.35,10.0,NNW,5.8,-,N/A,,Clear,330,2012-10-12 01:54:00
9:14 PM,33.3,17.4,52,30.36,10.0,NNW,4.6,-,N/A,,Clear,330,2012-10-12 02:14:00
9:54 PM,32.0,17.1,54,30.37,10.0,NW,5.8,-,N/A,,Clear,320,2012-10-12 02:54:00
10:34 PM,31.8,17.2,55,30.39,10.0,NW,4.6,-,N/A,,Clear,310,2012-10-12 03:34:00
10:54 PM,30.2,17.2,59,30.39,10.0,WNW,4.6,-,N/A,,Clear,290,2012-10-12 03:54:00
11:14 PM,30.6,17.6,59,30.40,10.0,West,4.6,-,N/A,,Clear,280,2012-10-12 04:14:00
11:34 PM,31.3,17.4,57,30.41,10.0,WNW,4.6,-,N/A,,Clear,290,2012-10-12 04:34:00
11:54 PM,32.2,17.4,55,30.41,10.0,WNW,5.8,-,N/A,,Clear,290,2012-10-12 04:54:00